When you browse on this site, cookies collect data to enhance your experience and personalize the content and advertising you see.
Visit our Privacy Policy to learn more. By continuing to use the site, you agree to this use of cookies and data.
  • In Hungary
  • List of Countries
  • For 7 days
  • Water Temperature
  • Weather Map
  • News
  • Weather Widgets
  • user-avatar
    Login

    Hourly Weather Ragulcy

    Today, 6 December, Friday

    Time Temperature Precipitation Wind Pressure Humidity
    00:00 -2°C° 0 mm 5 mps 746 mmHg 86%
    01:00 -2°C° 0 mm 5 mps 746 mmHg 84%
    02:00 -4°C° 0 mm 5 mps 746 mmHg 85%
    03:00 -4°C° 0 mm 5 mps 745 mmHg 85%
    04:00 -4°C° 0 mm 5 mps 745 mmHg 85%
    05:00 -5°C° 0 mm 5 mps 744 mmHg 85%
    06:00 -5°C° 0 mm 5 mps 744 mmHg 85%
    07:00 -5°C° 0 mm 5 mps 744 mmHg 85%
    08:00 -5°C° 0 mm 5 mps 743 mmHg 85%
    09:00 -4°C° 0 mm 6 mps 743 mmHg 83%
    10:00 -3°C° 0 mm 6 mps 742 mmHg 81%
    11:00 -3°C° 0 mm 7 mps 742 mmHg 78%
    12:00 -2°C° 0 mm 7 mps 742 mmHg 76%
    13:00 -2°C° 0 mm 7 mps 742 mmHg 73%
    14:00 -2°C° 0 mm 7 mps 741 mmHg 71%
    15:00 -2°C° 0.1 mm 7 mps 741 mmHg 72%
    16:00 -2°C° 0.1 mm 7 mps 741 mmHg 73%
    17:00 -2°C° 0.1 mm 6 mps 741 mmHg 74%
    18:00 -2°C° 0 mm 6 mps 741 mmHg 75%
    19:00 -2°C° 0 mm 7 mps 741 mmHg 77%
    20:00 -2°C° 0 mm 7 mps 742 mmHg 78%
    21:00 -2°C° 0 mm 6 mps 741 mmHg 80%
    22:00 -2°C° 0 mm 6 mps 741 mmHg 83%
    23:00 -2°C° 0 mm 6 mps 741 mmHg 85%

    Tomorrow, 7 December, Saturday

    Time Temperature Precipitation Wind Pressure Humidity
    00:00 -1°C° 0.1 mm 5 mps 741 mmHg 86%
    01:00 -1°C° 0.1 mm 5 mps 741 mmHg 87%
    02:00 -1°C° 0.1 mm 5 mps 741 mmHg 87%
    03:00 -1°C° 0.1 mm 5 mps 741 mmHg 88%
    04:00 -1°C° 0.1 mm 5 mps 741 mmHg 89%
    05:00 -2°C° 0.1 mm 5 mps 740 mmHg 89%
    06:00 -2°C° 0.4 mm 5 mps 740 mmHg 90%
    07:00 -2°C° 0.4 mm 5 mps 740 mmHg 91%
    08:00 -2°C° 0.4 mm 5 mps 740 mmHg 92%
    09:00 -2°C° 0.1 mm 5 mps 739 mmHg 88%
    10:00 -2°C° 0.1 mm 5 mps 739 mmHg 85%
    11:00 -1°C° 0.1 mm 5 mps 738 mmHg 81%
    12:00 -1°C° 0 mm 5 mps 738 mmHg 81%
    13:00 -1°C° 0 mm 5 mps 738 mmHg 80%
    14:00 -2°C° 0 mm 6 mps 737 mmHg 80%
    15:00 -2°C° 0 mm 6 mps 737 mmHg 81%
    16:00 -2°C° 0 mm 6 mps 737 mmHg 81%
    17:00 -2°C° 0 mm 6 mps 736 mmHg 82%
    18:00 -2°C° 0 mm 6 mps 736 mmHg 85%
    19:00 -2°C° 0 mm 6 mps 736 mmHg 87%
    20:00 -1°C° 0 mm 6 mps 736 mmHg 90%
    21:00 -1°C° 0.3 mm 6 mps 735 mmHg 91%
    22:00 +1°C° 0.3 mm 6 mps 735 mmHg 93%
    23:00 +1°C° 0.3 mm 6 mps 734 mmHg 94%

    Day after tomorrow, 8 December, Sunday

    Time Temperature Precipitation Wind Pressure Humidity
    00:00 +1°C° 0.3 mm 5 mps 735 mmHg 91%
    01:00 +1°C° 0.3 mm 5 mps 735 mmHg 88%
    02:00 +1°C° 0.3 mm 5 mps 735 mmHg 84%
    03:00 +1°C° 0 mm 5 mps 735 mmHg 85%
    04:00 0°C° 0 mm 5 mps 735 mmHg 86%
    05:00 0°C° 0 mm 5 mps 735 mmHg 86%
    06:00 0°C° 0 mm 5 mps 736 mmHg 87%
    07:00 -1°C° 0 mm 6 mps 736 mmHg 88%
    08:00 -2°C° 0 mm 6 mps 737 mmHg 89%
    09:00 0°C° 0 mm 5 mps 738 mmHg 89%
    10:00 0°C° 0 mm 5 mps 738 mmHg 89%
    11:00 0°C° 0 mm 4 mps 739 mmHg 89%
    12:00 0°C° 0 mm 4 mps 739 mmHg 88%
    13:00 0°C° 0 mm 4 mps 739 mmHg 86%
    14:00 0°C° 0 mm 4 mps 739 mmHg 85%
    15:00 0°C° 0 mm 4 mps 739 mmHg 86%
    16:00 -1°C° 0 mm 4 mps 739 mmHg 86%
    17:00 -1°C° 0 mm 4 mps 739 mmHg 87%
    18:00 -1°C° 0 mm 5 mps 739 mmHg 88%
    19:00 -1°C° 0 mm 5 mps 739 mmHg 89%
    20:00 -1°C° 0 mm 5 mps 739 mmHg 89%
    21:00 0°C° 0.3 mm 5 mps 738 mmHg 91%
    22:00 -1°C° 0.3 mm 6 mps 738 mmHg 93%
    23:00 +1°C° 0.3 mm 6 mps 737 mmHg 95%

    9 December, Monday

    Time Temperature Precipitation Wind Pressure Humidity
    00:00 +1°C° 0.3 mm 6 mps 737 mmHg 93%
    01:00 +2°C° 0.3 mm 6 mps 736 mmHg 92%
    02:00 +2°C° 0.3 mm 7 mps 736 mmHg 90%
    03:00 +2°C° 0.1 mm 7 mps 735 mmHg 90%
    04:00 +2°C° 0.1 mm 7 mps 735 mmHg 90%
    05:00 +2°C° 0.1 mm 7 mps 734 mmHg 89%
    06:00 +2°C° 0.1 mm 7 mps 734 mmHg 89%
    07:00 +2°C° 0.1 mm 7 mps 734 mmHg 89%
    08:00 +2°C° 0.1 mm 7 mps 734 mmHg 90%
    09:00 +3°C° 0 mm 6 mps 734 mmHg 90%
    10:00 +3°C° 0 mm 6 mps 734 mmHg 90%
    11:00 +3°C° 0 mm 6 mps 734 mmHg 90%
    12:00 +3°C° 0.3 mm 5 mps 734 mmHg 89%
    13:00 +3°C° 0.3 mm 5 mps 734 mmHg 89%
    14:00 +5°C° 0.3 mm 5 mps 735 mmHg 88%
    15:00 +4°C° 0 mm 4 mps 735 mmHg 89%
    16:00 +3°C° 0 mm 4 mps 735 mmHg 91%
    17:00 +3°C° 0 mm 4 mps 735 mmHg 92%
    18:00 +3°C° 0 mm 4 mps 736 mmHg 91%
    19:00 +2°C° 0 mm 3 mps 736 mmHg 89%
    20:00 +2°C° 0 mm 3 mps 737 mmHg 88%
    21:00 +2°C° 0 mm 3 mps 737 mmHg 89%
    22:00 +2°C° 0 mm 3 mps 737 mmHg 90%
    23:00 +2°C° 0 mm 3 mps 737 mmHg 91%

    10 December, Tuesday

    Time Temperature Precipitation Wind Pressure Humidity
    00:00 +2°C° 0 mm 3 mps 737 mmHg 92%
    01:00 +1°C° 0 mm 3 mps 737 mmHg 93%
    02:00 +2°C° 0 mm 2 mps 737 mmHg 94%
    03:00 +2°C° 0 mm 2 mps 737 mmHg 95%
    04:00 +2°C° 0 mm 2 mps 737 mmHg 95%
    05:00 +2°C° 0 mm 2 mps 737 mmHg 96%
    06:00 +2°C° 0 mm 2 mps 737 mmHg 96%
    07:00 +2°C° 0 mm 2 mps 737 mmHg 96%
    08:00 +2°C° 0 mm 2 mps 737 mmHg 95%
    09:00 +2°C° 0 mm 2 mps 737 mmHg 94%
    10:00 +3°C° 0 mm 2 mps 737 mmHg 94%
    11:00 +2°C° 0 mm 3 mps 737 mmHg 93%
    12:00 +2°C° 0 mm 3 mps 737 mmHg 92%
    13:00 +2°C° 0 mm 3 mps 737 mmHg 91%
    14:00 +2°C° 0 mm 3 mps 737 mmHg 91%
    15:00 +2°C° 0 mm 3 mps 737 mmHg 92%
    16:00 +2°C° 0 mm 3 mps 737 mmHg 93%
    17:00 +2°C° 0 mm 3 mps 737 mmHg 94%
    18:00 +2°C° 0 mm 3 mps 737 mmHg 94%
    19:00 0°C° 0 mm 4 mps 737 mmHg 94%
    20:00 0°C° 0 mm 4 mps 738 mmHg 93%
    21:00 -1°C° 0.6 mm 5 mps 738 mmHg 92%
    22:00 -3°C° 0.6 mm 6 mps 739 mmHg 91%
    23:00 -4°C° 0.6 mm 6 mps 739 mmHg 89%

    11 December, Wednesday

    Time Temperature Precipitation Wind Pressure Humidity
    00:00 -4°C° 0.1 mm 6 mps 740 mmHg 87%
    01:00 -4°C° 0.1 mm 5 mps 740 mmHg 85%
    02:00 -3°C° 0.1 mm 4 mps 741 mmHg 83%
    03:00 -3°C° 0 mm 4 mps 741 mmHg 84%
    04:00 -4°C° 0 mm 4 mps 742 mmHg 85%
    05:00 -5°C° 0 mm 5 mps 743 mmHg 85%
    06:00 -4°C° 0 mm 4 mps 743 mmHg 84%
    07:00 -4°C° 0 mm 4 mps 743 mmHg 83%
    08:00 -4°C° 0 mm 4 mps 744 mmHg 82%
    09:00 -4°C° 0 mm 4 mps 744 mmHg 80%
    10:00 -3°C° 0 mm 4 mps 745 mmHg 78%
    11:00 -3°C° 0 mm 4 mps 745 mmHg 76%
    12:00 -2°C° 0 mm 3 mps 745 mmHg 75%
    13:00 -2°C° 0 mm 3 mps 745 mmHg 74%
    14:00 -2°C° 0 mm 3 mps 745 mmHg 73%
    15:00 -2°C° 0 mm 3 mps 745 mmHg 76%
    16:00 -2°C° 0 mm 3 mps 745 mmHg 79%
    17:00 -4°C° 0 mm 3 mps 745 mmHg 82%
    18:00 -2°C° 0 mm 3 mps 744 mmHg 80%
    19:00 -3°C° 0 mm 4 mps 744 mmHg 78%
    20:00 -3°C° 0 mm 4 mps 744 mmHg 75%
    21:00 -4°C° 0 mm 5 mps 744 mmHg 73%
    22:00 -4°C° 0 mm 5 mps 743 mmHg 70%
    23:00 -3°C° 0 mm 6 mps 743 mmHg 68%
    Show more